Location: Góry Miechowskie
(50.3599°N, 20.1803°E)
Time: 13:56:51
(UTC+00:00)

A-11 Canister half - Pass Details

Date: 14 September 2024
Orbit: 1515 x 1684 km, 47.2° (Epoch: 11 October)

Event Time Altitude Azimuth Distance (km) Brightness Sun altitude
Rises 18:50:20 0° 245° (WSW) 4,707 12.1 -18.4°
Reaches altitude 10° 18:53:26 10° 243° (WSW) 3,708 11.4 -18.8°
Maximum altitude 19:02:37 66° 164° (SSE) 1,633 8.9 -20.1°
Enters shadow 19:08:44 24° 89° (E) 2,761 9.9 -20.9°
